sat.trackr.live / text

‹ back to catalog

STARLINK-5587

NORAD 57245 · 2023-094AD

PAYLOAD ACTIVE UNKNOWN

§ Identity

Operator
Country
US
Launch date
2023-07-07
Launch site
AFWTR
Launch vehicle
Mass (kg)
RCS (m²)

Purposes: comms

External: N2YO · Heavens-Above · Gunter

§ Orbital elements

Epoch: 2026-09-20T07:50:29.410656Z

Period
94.27 min
Inclination
43.0063°
Eccentricity
0.0001785
Mean motion
15.27577141 rev/d
Perigee alt
481.8 km
Apogee alt
484.3 km
Semi-major
6,861.2 km
B*
-1.1842e-6
RAAN
0.9843°
Arg perigee
285.3130°
Mean anomaly
74.7524°
Rev number
17,700

§ Raw data

STARLINK-55871 57245U 23094AD  26263.32672929 -.00000295  00000+0 -11842-5 0  99982 57245  43.0063   0.9843 0001785 285.3130  74.7524 15.27577141177002

JSON: /api/v1/satellites/57245 · /tle

For live sub-satellite position, see the globe view (requires WebGL).

§ Visibility from observer

Set your observer location to see the next 7 days of passes ≥ 10°. The values pass through the URL so the page stays shareable.

No JS? Fill the form by hand. The geolocation button needs JavaScript.